This is the latest recevied weather packets stored in our database for station/object KP4FJC. If no packets are shown the sender has not sent any weather packets the latest 10 day(s).
| Time | Temp. | Humidity | Pressure | Rain* | Wind** | Luminosity | Snow |
|---|---|---|---|---|---|---|---|
| 1777728163 | 28.89° C | 76% | 1018.6 hPa | 0 mm | - | 178 W/m² | - |
| 1777727860 | 28.89° C | 74% | 1018.4 hPa | 0 mm | - | 633 W/m² | - |
| 1777727557 | 28.89° C | 76% | 1018.6 hPa | 0 mm | - | 588 W/m² | - |
| 1777727254 | 28.33° C | 77% | 1018.5 hPa | 0 mm | - | 581 W/m² | - |
| 1777726952 | 28.89° C | 76% | 1018.3 hPa | 0 mm | - | 151 W/m² | - |
| 1777726648 | 28.89° C | 76% | 1018.3 hPa | 0 mm | - | 549 W/m² | - |
| 1777726346 | 28.89° C | 76% | 1018.5 hPa | 0 mm | - | 532 W/m² | - |
| 1777726042 | 28.33° C | 78% | 1018.4 hPa | 0 mm | - | 498 W/m² | - |
| 1777725739 | 28.33° C | 77% | 1018.3 hPa | 0 mm | - | 477 W/m² | - |
| 1777725438 | 28.33° C | 78% | 1018.2 hPa | 0 mm | - | 111 W/m² | - |
| 1777725134 | 28.33° C | 78% | 1018.3 hPa | 0 mm | - | 430 W/m² | - |
| 1777724831 | 27.78° C | 79% | 1018.4 hPa | 0 mm | - | 398 W/m² | - |
| 1777724527 | 27.78° C | 79% | 1018 hPa | 0 mm | - | 375 W/m² | - |
| 1777724226 | 27.78° C | 79% | 1018.2 hPa | 0 mm | - | 354 W/m² | - |
| 1777723924 | 27.78° C | 78% | 1018 hPa | 0 mm | - | 333 W/m² | - |
| 1777723619 | 27.78° C | 78% | 1017.8 hPa | 0 mm | - | 312 W/m² | - |
| 1777723316 | 27.22° C | 80% | 1017.9 hPa | 0 mm | - | 286 W/m² | - |
| 1777723014 | 27.22° C | 79% | 1017.7 hPa | 0 mm | - | 265 W/m² | - |
| 1777722710 | 27.78° C | 78% | 1017.8 hPa | 0 mm | - | 245 W/m² | - |
| 1777722406 | 27.78° C | 79% | 1017.9 hPa | 0 mm | - | 224 W/m² | - |
| 1777722104 | 27.78° C | 81% | 1017.7 hPa | 0 mm | - | 205 W/m² | - |
| 1777721801 | 27.78° C | 80% | 1017.9 hPa | 0 mm | - | 186 W/m² | - |
| 1777721499 | 27.78° C | 82% | 1017.8 hPa | 0 mm | - | 166 W/m² | - |
| 1777721197 | 27.22° C | 83% | 1017.7 hPa | 0 mm | - | 149 W/m² | - |
| 1777720893 | 26.67° C | 83% | 1017.8 hPa | 0 mm | - | 133 W/m² | - |
* Rain latest hour (hover to see other rain measurements)
** Current wind speed in m/s (hover to see current wind gust speed)